Theta_e
293 293 293 292 290 289 289 288 287 288 288 291 290 291 291 293 295 298 299 303 304 303 304 307 311 315 318 321 323 324 325 326 327 327 328 328 329 326
290 291 291 291 290 289 288 287 287 287 285 290 290 288 289 291 293 294 296 298 301 301 303 304 307 309 313 315 319 321 323 323 324 325 327 329 330 327
287 288 289 290 289 289 288 287 287 287 285 288 286 288 288 288 291 294 296 299 301 301 303 303 304 306 308 310 313 315 317 322 324 325 324 324 325 327
284 285 286 288 288 288 288 287 286 285 286 287 286 286 287 289 291 292 295 297 298 299 300 302 303 304 305 306 307 313 315 319 322 325 325 326 327 326
283 283 284 285 285 286 286 286 286 285 285 286 286 286 286 288 291 292 294 296 297 298 300 301 303 305 307 307 305 309 317 319 322 323 323 324 325 325
282 282 282 282 283 284 284 285 285 286 285 286 286 286 285 287 288 289 293 293 296 297 299 301 303 304 307 308 308 308 313 316 319 322 321 320 321 325
281 280 281 280 280 281 282 283 284 284 285 285 285 284 284 286 286 287 288 291 293 294 296 297 298 300 304 306 307 308 311 316 317 321 320 319 320 321
280 280 280 279 279 279 280 280 282 282 283 282 281 281 282 282 285 286 286 286 288 292 292 292 294 295 296 299 300 305 309 313 314 315 317 317 319 317
279 280 278 279 278 278 278 279 279 279 279 279 279 279 279 279 282 287 287 285 284 287 289 290 291 290 291 293 294 298 301 305 308 311 312 313 315 315
278 278 277 278 278 278 278 278 279 279 279 278 278 278 278 280 280 281 285 285 285 286 288 288 289 288 287 289 291 293 295 298 299 304 305 306 309 310
277 277 277 277 275 277 277 277 277 277 277 276 276 276 277 278 279 281 282 283 286 284 285 284 286 287 286 288 289 289 291 292 295 297 298 303 303 305
276 276 276 275 275 277 277 277 277 276 276 276 276 276 276 277 277 278 278 278 278 280 280 282 284 286 286 286 286 287 288 288 288 291 292 296 300 302
276 276 276 274 275 275 275 275 275 275 275 276 276 276 276 275 275 275 275 275 275 276 276 280 280 282 281 281 282 282 285 286 286 288 288 289 290 293
275 275 275 275 275 275 275 274 274 275 275 275 275 276 275 274 274 274 273 273 273 274 276 278 278 279 279 278 278 281 281 281 282 282 283 285 287 287
275 275 274 274 274 274 274 274 274 275 274 275 274 273 274 273 273 274 273 273 274 274 275 277 277 277 277 276 275 275 279 279 279 280 281 281 282 284
274 274 274 274 274 274 274 274 274 274 274 273 273 273 273 274 274 274 274 275 275 274 273 274 275 276 275 274 273 274 274 275 276 277 279 279 280 281
274 273 273 274 274 274 274 273 273 273 273 273 273 273 273 273 273 273 273 273 272 273 274 274 273 273 272 272 273 272 273 274 274 275 277 278 279 280
273 274 274 274 274 273 273 273 273 273 272 272 272 272 271 272 272 271 271 271 271 270 271 272 273 274 274 271 270 270 271 272 273 274 275 276 278 278
274 274 274 274 273 273 273 272 272 272 271 272 271 271 271 271 271 270 270 270 269 269 269 269 270 270 269 268 271 269 268 269 271 272 273 275 276 277
274 274 273 273 273 273 272 272 272 272 272 271 271 271 270 270 270 269 269 269 269 268 268 268 268 267 267 267 267 269 269 269 269 270 271 273 274 275
274 274 273 273 273 272 272 272 271 271 271 271 271 270 270 269 269 268 268 268 268 267 267 266 266 267 267 268 268 270 270 269 269 270 271 271 271 273
273 273 273 272 272 272 271 271 271 271 270 270 270 270 269 269 269 268 268 267 267 266 266 266 266 266 266 266 266 267 268 270 270 270 270 268 269 270
273 273 272 272 272 272 271 271 271 271 270 270 270 269 269 269 268 268 267 267 267 266 266 266 265 265 265 265 265 265 266 267 267 269 270 271 271 272
Wind_Speed
11 11 12 11 10 10 12 13 14 15 28 32 37 38 34 33 33 33 35 32 31 33 33 33 35 35 33 31 32 33 35 40 45 46 48 51 54 52
10 10 11 11 10 10 10 11 13 14 14 31 29 29 29 29 25 22 22 25 30 29 29 31 34 37 37 35 33 32 33 36 39 43 47 51 53 50
10 11 10 9 10 9 10 11 13 15 18 27 24 27 27 28 25 20 10 7 11 13 13 22 33 35 38 39 38 39 37 36 37 39 43 44 45 48
12 12 11 9 9 10 10 12 16 15 19 24 25 26 24 23 23 20 16 15 14 19 16 20 24 29 35 38 38 36 37 35 34 38 40 37 41 44
13 13 13 12 10 11 12 13 15 15 17 20 24 24 27 24 16 12 13 16 19 18 17 18 18 17 19 29 34 36 34 32 33 31 34 36 38 42
12 13 14 13 13 13 13 14 15 16 18 20 24 27 30 30 24 20 10 8 7 9 7 8 9 11 13 16 24 32 33 33 34 32 34 32 33 31
13 13 13 13 12 12 13 14 15 17 18 21 23 27 32 35 33 25 19 11 6 3 0 3 3 2 1 7 10 14 22 24 32 32 32 33 34 33
14 14 13 12 11 12 12 13 14 16 17 19 21 24 27 30 29 21 19 24 15 7 5 8 9 11 10 10 5 11 16 19 22 24 30 34 34 33
14 15 15 14 9 11 13 13 12 11 12 14 17 20 23 26 26 23 10 12 21 19 4 12 7 14 15 14 13 8 3 10 19 24 27 32 30 28
13 17 17 16 12 11 11 11 10 10 11 13 13 15 17 19 22 24 18 4 11 20 9 19 10 13 16 16 15 13 11 9 8 9 11 12 15 16
9 12 17 16 15 10 10 10 11 12 12 11 11 11 14 14 16 15 20 19 6 22 21 22 20 9 10 17 16 16 17 14 12 11 13 16 14 13
10 10 12 17 16 14 13 12 12 14 11 9 10 12 14 17 20 22 23 26 24 11 25 19 21 15 4 16 23 16 17 19 19 15 12 12 16 15
11 12 13 14 16 15 15 16 17 14 13 13 14 16 18 20 21 22 24 24 24 22 22 17 19 18 13 13 16 24 18 20 20 18 18 18 18 12
11 12 12 13 13 13 14 16 14 13 14 16 19 21 23 23 22 20 21 22 22 22 18 16 18 19 19 19 23 22 18 20 22 22 22 19 17 17
11 11 11 11 12 12 14 14 14 17 20 22 24 25 25 24 22 21 20 20 21 21 19 15 14 15 18 21 25 27 26 17 25 24 21 22 23 22
9 9 8 9 11 13 13 15 17 19 21 23 23 23 22 23 25 25 25 24 25 26 25 20 13 11 16 20 23 25 26 24 24 24 22 20 19 18
8 7 6 8 10 13 15 17 18 18 20 21 21 22 23 24 26 26 27 28 31 30 29 27 24 14 15 23 27 29 28 27 27 26 24 21 18 18
5 5 8 10 13 15 16 17 18 20 21 20 21 22 23 24 25 26 27 29 31 32 33 33 31 28 25 22 30 32 30 31 29 26 24 24 19 18
4 6 8 10 12 14 16 18 19 21 20 20 20 20 21 23 24 26 27 28 29 30 32 32 33 35 37 36 29 30 31 32 32 28 25 22 23 21
4 6 8 11 12 13 14 15 16 16 17 17 18 19 20 21 22 24 25 25 26 27 29 31 33 32 30 28 28 30 29 31 32 31 28 24 19 17
3 5 7 9 10 12 13 14 14 15 16 17 17 18 19 19 20 21 21 23 24 26 28 30 29 27 25 26 31 31 28 25 25 24 24 28 32 28
1 3 5 6 8 9 10 11 13 13 14 15 16 17 18 18 18 18 19 21 22 23 24 25 27 29 29 29 30 32 32 29 23 21 21 20 24 20
2 1 2 4 6 8 10 12 12 13 14 15 15 16 16 17 16 16 16 17 19 20 22 24 26 28 27 29 30 32 32 33 32 28 21 20 19 17
Wind_Direction
19 17 20 16 3 357 347 343 339 326 322 322 322 320 315 304 294 282 273 272 266 263 259 255 253 250 248 249 250 250 249 247 245 245 246 246 244 237
12 10 13 19 15 9 4 352 339 324 309 324 330 328 323 316 307 290 276 264 269 274 272 263 258 255 251 249 249 250 251 251 251 249 248 250 253 237
6 5 5 6 9 9 11 2 358 349 337 342 338 334 327 323 319 300 288 294 285 277 286 275 263 259 257 253 250 249 251 252 251 253 254 256 254 251
1 360 10 7 356 356 3 5 7 11 351 347 356 354 346 332 324 313 278 259 269 271 286 287 286 272 261 258 255 252 252 252 252 249 248 250 248 250
3 359 2 4 1 359 359 1 3 2 3 356 357 4 8 355 335 314 290 270 264 265 266 274 281 287 273 259 255 249 251 253 252 251 246 246 246 251
6 357 355 -0 358 357 358 356 356 357 360 2 3 6 12 12 11 350 328 312 285 256 266 271 268 267 259 256 253 243 243 246 250 253 254 253 255 256
6 5 359 354 354 350 350 351 347 352 356 360 3 3 8 12 12 8 11 22 319 339 348 35 56 63 232 255 255 255 246 250 244 250 250 255 257 258
7 6 5 1 357 355 353 350 345 350 356 3 6 7 8 10 13 19 25 30 14 359 89 53 66 59 57 52 23 264 257 259 259 265 253 261 261 264
4 5 12 10 8 7 1 357 356 358 2 8 9 13 7 10 11 17 31 39 19 16 101 44 81 54 43 39 35 31 17 260 259 266 266 269 273 270
1 8 13 12 16 22 9 4 7 8 10 11 11 8 7 7 17 23 20 98 27 35 51 38 68 68 28 26 27 29 23 4 357 306 301 292 273 274
355 9 8 16 24 31 18 28 29 26 22 21 21 14 6 12 18 18 34 43 37 32 36 35 32 91 37 24 23 23 20 28 14 350 332 309 305 308
4 5 20 21 20 29 29 34 36 39 40 44 45 35 32 27 26 31 32 35 34 36 22 29 32 35 41 23 29 26 29 29 24 18 4 329 304 308
7 8 11 20 17 25 31 35 38 36 38 40 42 46 44 40 39 38 35 34 35 37 23 24 28 37 36 16 23 20 18 22 23 22 18 19 18 359
13 13 11 16 19 30 38 42 42 42 46 49 48 47 51 49 47 48 47 45 41 36 31 36 39 31 26 28 18 13 18 19 17 20 18 18 16 17
15 17 19 26 34 42 51 49 48 49 49 50 50 47 49 52 52 58 61 58 50 44 38 42 44 36 29 27 16 10 6 10 7 11 18 15 11 8
27 31 36 42 44 49 52 50 47 47 48 49 49 47 47 48 47 44 45 48 52 52 48 43 33 22 22 20 16 16 17 15 4 3 6 18 13 17
35 38 48 53 55 55 53 52 51 51 49 48 46 45 43 43 44 42 41 41 40 36 37 42 47 46 28 23 18 18 13 12 10 5 360 5 21 16
41 46 47 49 50 50 48 46 45 44 43 42 40 41 40 39 40 39 39 41 39 34 30 27 25 27 33 42 25 11 11 7 6 5 5 357 2 11
38 53 53 52 51 48 45 41 39 37 35 33 33 35 36 35 34 35 34 36 37 35 32 29 27 24 20 14 20 18 8 6 0 4 3 2 353 354
41 51 49 46 45 43 41 38 36 34 32 31 30 29 28 30 29 32 31 30 32 31 29 28 27 25 21 11 1 12 16 4 2 359 358 354 346 345
24 45 48 44 40 37 34 32 28 26 26 24 25 24 23 23 23 23 26 23 25 25 26 26 25 21 18 11 11 8 12 16 14 4 360 356 352 348
-0 37 38 37 36 34 32 27 23 21 20 19 18 18 16 15 14 14 13 15 18 17 18 16 15 16 18 16 12 7 5 5 14 19 17 12 358 344
255 343 26 27 23 19 18 16 13 10 9 9 9 9 10 10 9 7 4 3 3 5 7 7 8 11 14 12 11 10 8 8 5 3 11 12 3 354